TimeCST,TemperatureF,Dew PointF,Humidity,Sea Level PressureIn,VisibilityMPH,Wind Direction,Wind SpeedMPH,Gust SpeedMPH,PrecipitationIn,Events,Conditions,WindDirDegrees,DateUTC
12:15 AM,37.4,33.8,87,29.92,10.0,NNE,3.5,-,N/A,,Overcast,20,2013-02-13 06:15:00
12:35 AM,37.4,33.8,87,29.91,10.0,North,4.6,-,N/A,,Overcast,360,2013-02-13 06:35:00
12:55 AM,37.4,33.8,87,29.91,10.0,North,8.1,-,N/A,,Overcast,360,2013-02-13 06:55:00
1:15 AM,37.4,33.8,87,29.91,7.0,Calm,Calm,-,N/A,,Overcast,0,2013-02-13 07:15:00
1:35 AM,37.4,33.8,87,29.91,7.0,Calm,Calm,-,N/A,,Overcast,0,2013-02-13 07:35:00
1:55 AM,37.4,33.8,87,29.90,7.0,North,5.8,-,N/A,,Overcast,360,2013-02-13 07:55:00
2:55 AM,35.6,33.8,93,29.87,7.0,North,4.6,-,N/A,,Mostly Cloudy,350,2013-02-13 08:55:00
3:15 AM,35.6,33.8,93,29.87,5.0,North,4.6,-,N/A,,Overcast,360,2013-02-13 09:15:00
3:35 AM,35.6,32.0,87,29.87,7.0,North,5.8,-,N/A,,Overcast,360,2013-02-13 09:35:00
3:55 AM,35.6,32.0,87,29.86,7.0,North,6.9,-,N/A,,Overcast,360,2013-02-13 09:55:00
4:15 AM,35.6,32.0,87,29.86,5.0,Calm,Calm,-,N/A,,Overcast,0,2013-02-13 10:15:00
4:35 AM,35.6,32.0,87,29.86,7.0,NNW,4.6,-,N/A,,Overcast,330,2013-02-13 10:35:00
4:55 AM,35.6,32.0,87,29.86,4.0,Calm,Calm,-,N/A,Snow,Snow,0,2013-02-13 10:55:00
5:15 AM,35.6,33.8,93,29.85,5.0,Calm,Calm,-,N/A,Rain,Light Rain,0,2013-02-13 11:15:00
5:35 AM,35.6,32.0,87,29.85,7.0,Calm,Calm,-,N/A,,Overcast,0,2013-02-13 11:35:00
5:55 AM,35.6,32.0,87,29.86,7.0,Calm,Calm,-,N/A,,Overcast,0,2013-02-13 11:55:00
6:15 AM,35.6,30.2,81,29.86,7.0,Calm,Calm,-,N/A,,Overcast,0,2013-02-13 12:15:00
6:35 AM,35.6,32.0,87,29.86,5.0,Calm,Calm,-,N/A,,Overcast,0,2013-02-13 12:35:00
6:55 AM,35.6,32.0,87,29.87,4.0,Calm,Calm,-,N/A,,Overcast,0,2013-02-13 12:55:00
7:15 AM,35.6,32.0,87,29.88,4.0,Calm,Calm,-,N/A,,Mostly Cloudy,0,2013-02-13 13:15:00
7:35 AM,35.6,32.0,87,29.89,5.0,Calm,Calm,-,N/A,,Clear,0,2013-02-13 13:35:00
7:55 AM,35.6,30.2,81,29.89,5.0,Calm,Calm,-,N/A,,Clear,0,2013-02-13 13:55:00
8:15 AM,35.6,30.2,81,29.89,5.0,Calm,Calm,-,N/A,,Scattered Clouds,0,2013-02-13 14:15:00
8:35 AM,35.6,30.2,81,29.89,7.0,Calm,Calm,-,N/A,,Scattered Clouds,0,2013-02-13 14:35:00
8:55 AM,37.4,30.2,75,29.88,7.0,Calm,Calm,-,N/A,,Scattered Clouds,0,2013-02-13 14:55:00
9:15 AM,37.4,30.2,75,29.89,7.0,Calm,Calm,-,N/A,,Scattered Clouds,0,2013-02-13 15:15:00
9:35 AM,37.4,30.2,75,29.89,7.0,West,3.5,-,N/A,,Scattered Clouds,260,2013-02-13 15:35:00
9:55 AM,37.4,30.2,75,29.89,7.0,WSW,3.5,-,N/A,,Clear,240,2013-02-13 15:55:00
10:15 AM,39.2,30.2,70,29.89,7.0,Calm,Calm,-,N/A,,Clear,0,2013-02-13 16:15:00
10:35 AM,39.2,30.2,70,29.89,7.0,West,3.5,-,N/A,,Clear,260,2013-02-13 16:35:00
10:55 AM,42.8,30.2,61,29.88,7.0,SSW,3.5,-,N/A,,Clear,210,2013-02-13 16:55:00
11:15 AM,42.8,30.2,61,29.87,7.0,SSW,5.8,-,N/A,,Clear,200,2013-02-13 17:15:00
11:35 AM,44.6,33.8,66,29.86,7.0,West,3.5,-,N/A,,Clear,260,2013-02-13 17:35:00
11:55 AM,46.4,33.8,62,29.86,10.0,WSW,8.1,-,N/A,,Clear,250,2013-02-13 17:55:00
12:15 PM,46.4,32.0,57,29.85,10.0,WSW,5.8,-,N/A,,Clear,240,2013-02-13 18:15:00
12:35 PM,46.4,32.0,57,29.84,10.0,WSW,5.8,-,N/A,,Clear,250,2013-02-13 18:35:00
12:55 PM,48.2,33.8,58,29.84,10.0,SW,4.6,-,N/A,,Clear,220,2013-02-13 18:55:00
1:15 PM,48.2,33.8,58,29.83,10.0,SW,6.9,-,N/A,,Clear,230,2013-02-13 19:15:00
1:35 PM,48.2,32.0,54,29.82,10.0,SW,6.9,-,N/A,,Clear,220,2013-02-13 19:35:00
1:55 PM,50.0,30.2,47,29.82,10.0,WSW,6.9,-,N/A,,Clear,250,2013-02-13 19:55:00
2:15 PM,50.0,32.0,50,29.82,10.0,SW,3.5,-,N/A,,Clear,220,2013-02-13 20:15:00
2:35 PM,51.8,30.2,44,29.82,10.0,SW,5.8,-,N/A,,Clear,220,2013-02-13 20:35:00
2:55 PM,51.8,30.2,44,29.82,10.0,SW,4.6,-,N/A,,Clear,220,2013-02-13 20:55:00
3:15 PM,51.8,30.2,44,29.82,10.0,SW,5.8,-,N/A,,Clear,220,2013-02-13 21:15:00
3:35 PM,51.8,28.4,41,29.82,10.0,WSW,9.2,-,N/A,,Clear,240,2013-02-13 21:35:00
3:55 PM,50.0,30.2,47,29.82,10.0,WSW,11.5,-,N/A,,Clear,250,2013-02-13 21:55:00
4:15 PM,50.0,30.2,47,29.82,10.0,WSW,8.1,-,N/A,,Clear,250,2013-02-13 22:15:00
4:35 PM,48.2,30.2,50,29.83,10.0,WSW,6.9,-,N/A,,Clear,240,2013-02-13 22:35:00
4:55 PM,46.4,35.6,66,29.83,10.0,SSW,4.6,-,N/A,,Clear,200,2013-02-13 22:55:00
5:15 PM,44.6,35.6,71,29.83,10.0,SSW,4.6,-,N/A,,Clear,200,2013-02-13 23:15:00
5:35 PM,44.6,33.8,66,29.84,10.0,South,3.5,-,N/A,,Clear,190,2013-02-13 23:35:00
5:55 PM,42.8,33.8,70,29.84,10.0,South,3.5,-,N/A,,Clear,190,2013-02-13 23:55:00
6:15 PM,42.8,33.8,70,29.84,10.0,South,4.6,-,N/A,,Clear,180,2013-02-14 00:15:00
6:35 PM,42.8,33.8,70,29.84,10.0,South,4.6,-,N/A,,Clear,170,2013-02-14 00:35:00
6:55 PM,42.8,33.8,70,29.85,10.0,South,3.5,-,N/A,,Clear,170,2013-02-14 00:55:00
7:15 PM,41.0,32.0,70,29.85,10.0,South,4.6,-,N/A,,Clear,180,2013-02-14 01:15:00
7:35 PM,41.0,32.0,70,29.85,10.0,South,4.6,-,N/A,,Clear,180,2013-02-14 01:35:00
7:55 PM,41.0,33.8,76,29.85,10.0,South,4.6,-,N/A,,Clear,180,2013-02-14 01:55:00
8:15 PM,41.0,33.8,76,29.86,10.0,South,5.8,-,N/A,,Clear,190,2013-02-14 02:15:00
8:35 PM,41.0,33.8,76,29.86,10.0,South,4.6,-,N/A,,Clear,180,2013-02-14 02:35:00
8:55 PM,39.2,33.8,81,29.86,10.0,South,6.9,-,N/A,,Clear,190,2013-02-14 02:55:00
9:15 PM,39.2,35.6,87,29.86,10.0,SSW,6.9,-,N/A,,Clear,200,2013-02-14 03:15:00
9:35 PM,39.2,35.6,87,29.87,10.0,SSW,8.1,-,N/A,,Clear,200,2013-02-14 03:35:00
9:55 PM,39.2,35.6,87,29.87,10.0,SSW,5.8,-,N/A,,Clear,200,2013-02-14 03:55:00
10:15 PM,39.2,35.6,87,29.87,10.0,South,4.6,-,N/A,,Clear,190,2013-02-14 04:15:00
10:35 PM,39.2,35.6,87,29.87,10.0,South,3.5,-,N/A,,Clear,190,2013-02-14 04:35:00
10:55 PM,37.4,35.6,93,29.88,10.0,South,4.6,-,N/A,,Clear,190,2013-02-14 04:55:00
11:15 PM,37.4,35.6,93,29.88,10.0,SSW,4.6,-,N/A,,Clear,200,2013-02-14 05:15:00
11:35 PM,37.4,35.6,93,29.87,10.0,South,4.6,-,N/A,,Clear,190,2013-02-14 05:35:00
11:55 PM,37.4,37.4,100,29.88,10.0,SSW,5.8,-,N/A,,Clear,200,2013-02-14 05:55:00